CAL840 VTBS-RCKH

Flight info

Callsign CAL840
Flight time N/A
Altitude 39000
Route LIPLI1K LIPLI Y16 BUTRA A1 PAPRA/K0843F390 A1 IKELA/N0452F390 DCT MORTU DCT NOBAD DCT KAPLI G86 ANDRE A577 PARPA
Aircraft B38M/M-SDE1FGHILORVWXY/HB1

Departure

Time N/A
Airport Suvarnabhumi Airport (VTBS)

Arrival

Time 2026-04-26 08:32
Airport Kaohsiung International Airport (RCKH)
Time Latitude Longitude Altitude Speed Heading
2026-04-26 07:56 21.06236 117.27084 38933 ft 507 kts 60°
2026-04-26 07:56 21.07779 117.30472 38937 ft 507 kts 60°
2026-04-26 07:57 21.10870 117.37251 38934 ft 506 kts 60°
2026-04-26 07:57 21.13955 117.44027 38936 ft 506 kts 60°
2026-04-26 07:58 21.16872 117.50902 38904 ft 511 kts 71°
2026-04-26 07:58 21.18630 117.58287 38902 ft 512 kts 73°
2026-04-26 07:59 21.20404 117.65681 38941 ft 513 kts 73°
2026-04-26 07:59 21.22167 117.73102 38937 ft 514 kts 73°
2026-04-26 08:00 21.23925 117.80516 38938 ft 513 kts 73°
2026-04-26 08:00 21.25680 117.87931 38933 ft 513 kts 73°
2026-04-26 08:01 21.27432 117.95352 38933 ft 514 kts 73°
2026-04-26 08:01 21.29184 118.02789 38933 ft 514 kts 73°
2026-04-26 08:02 21.30925 118.10193 38933 ft 517 kts 73°
2026-04-26 08:02 21.32677 118.17661 38918 ft 516 kts 73°
2026-04-26 08:03 21.34427 118.25136 38923 ft 517 kts 73°
2026-04-26 08:03 21.36182 118.32648 38929 ft 516 kts 73°
2026-04-26 08:04 21.37924 118.40120 38931 ft 517 kts 73°
2026-04-26 08:04 21.39664 118.47605 38929 ft 517 kts 73°
2026-04-26 08:05 21.41114 118.53852 38925 ft 517 kts 73°
2026-04-26 08:05 21.43174 118.61205 38821 ft 508 kts 60°
2026-04-26 08:06 21.44734 118.64591 38055 ft 509 kts 61°
2026-04-26 08:06 21.46236 118.68074 37046 ft 517 kts 62°
2026-04-26 08:06 21.47722 118.71561 36538 ft 511 kts 62°
2026-04-26 08:06 21.49192 118.75012 36056 ft 505 kts 62°
2026-04-26 08:07 21.50644 118.78427 35447 ft 502 kts 62°
2026-04-26 08:07 21.52068 118.81777 34843 ft 499 kts 62°
2026-04-26 08:07 21.53523 118.85204 34302 ft 495 kts 62°
2026-04-26 08:07 21.54939 118.88538 33766 ft 490 kts 62°
2026-04-26 08:08 21.56347 118.91859 33244 ft 486 kts 62°
2026-04-26 08:08 21.57740 118.95144 32755 ft 481 kts 62°
2026-04-26 08:08 21.59119 118.98399 32267 ft 476 kts 62°
2026-04-26 08:08 21.60483 119.01620 31801 ft 471 kts 62°
2026-04-26 08:09 21.61831 119.04806 31350 ft 466 kts 61°
2026-04-26 08:09 21.63166 119.07961 30873 ft 461 kts 61°
2026-04-26 08:09 21.64486 119.11087 30414 ft 457 kts 61°
2026-04-26 08:09 21.65791 119.14175 29962 ft 452 kts 61°
2026-04-26 08:10 21.67075 119.17219 29330 ft 443 kts 61°
2026-04-26 08:10 21.68342 119.20222 28484 ft 439 kts 61°
2026-04-26 08:10 21.69594 119.23192 27703 ft 434 kts 62°
2026-04-26 08:10 21.70832 119.26130 26929 ft 428 kts 62°
2026-04-26 08:11 21.72052 119.29029 26162 ft 424 kts 62°
2026-04-26 08:11 21.73262 119.31904 25406 ft 419 kts 62°
2026-04-26 08:11 21.74456 119.34743 24662 ft 414 kts 62°
2026-04-26 08:11 21.75635 119.37548 23923 ft 409 kts 62°
2026-04-26 08:12 21.76802 119.40324 23202 ft 405 kts 62°
2026-04-26 08:12 21.77953 119.43066 22511 ft 399 kts 62°
2026-04-26 08:12 21.79086 119.45768 21855 ft 393 kts 63°
2026-04-26 08:12 21.80202 119.48427 21199 ft 387 kts 63°
2026-04-26 08:13 21.81301 119.51051 20523 ft 382 kts 63°
2026-04-26 08:13 21.82381 119.53628 20003 ft 373 kts 63°
2026-04-26 08:13 21.83440 119.56154 19626 ft 368 kts 63°
2026-04-26 08:13 21.84487 119.58656 19236 ft 366 kts 63°
2026-04-26 08:14 21.85507 119.61096 18854 ft 363 kts 63°
2026-04-26 08:14 21.86526 119.63531 18478 ft 361 kts 63°
2026-04-26 08:14 21.87540 119.65958 18086 ft 359 kts 63°
2026-04-26 08:14 21.88573 119.68432 17690 ft 356 kts 63°
2026-04-26 08:15 21.89573 119.70826 17310 ft 354 kts 63°
2026-04-26 08:15 21.90579 119.73238 16922 ft 352 kts 63°
2026-04-26 08:15 21.91579 119.75635 16544 ft 350 kts 63°
2026-04-26 08:15 21.92572 119.78019 16159 ft 348 kts 63°
2026-04-26 08:16 21.93560 119.80391 15782 ft 346 kts 63°
2026-04-26 08:16 21.94542 119.82746 15402 ft 343 kts 63°
2026-04-26 08:16 21.95517 119.85088 15026 ft 341 kts 63°
2026-04-26 08:16 21.96485 119.87417 14654 ft 339 kts 63°
2026-04-26 08:17 21.97448 119.89732 14289 ft 337 kts 63°
2026-04-26 08:17 21.98403 119.92030 13908 ft 336 kts 63°
2026-04-26 08:17 21.99354 119.94318 13537 ft 333 kts 63°
2026-04-26 08:17 22.00299 119.96593 13169 ft 332 kts 63°
2026-04-26 08:18 22.01237 119.98853 12801 ft 330 kts 64°
2026-04-26 08:18 22.02171 120.01104 12436 ft 328 kts 64°
2026-04-26 08:18 22.03201 120.03282 12049 ft 324 kts 51°
2026-04-26 08:18 22.04766 120.04984 11692 ft 318 kts 38°
2026-04-26 08:19 22.06414 120.06548 11394 ft 314 kts 38°
2026-04-26 08:19 22.08068 120.08105 11067 ft 317 kts 38°
2026-04-26 08:19 22.09748 120.09675 10706 ft 322 kts 38°
2026-04-26 08:19 22.11441 120.11250 10447 ft 319 kts 38°
2026-04-26 08:20 22.13094 120.12787 10304 ft 309 kts 38°
2026-04-26 08:20 22.14700 120.14277 10170 ft 300 kts 38°
2026-04-26 08:20 22.16258 120.15723 10009 ft 292 kts 38°
2026-04-26 08:20 22.17787 120.17143 9720 ft 289 kts 38°
2026-04-26 08:21 22.19312 120.18559 9389 ft 288 kts 38°
2026-04-26 08:21 22.20828 120.19968 9064 ft 287 kts 38°
2026-04-26 08:21 22.22340 120.21372 8749 ft 286 kts 38°
2026-04-26 08:21 22.23843 120.22768 8435 ft 284 kts 38°
2026-04-26 08:22 22.25337 120.24158 8126 ft 283 kts 39°
2026-04-26 08:22 22.26822 120.25538 7816 ft 281 kts 39°
2026-04-26 08:22 22.28297 120.26911 7503 ft 279 kts 39°
2026-04-26 08:22 22.29763 120.28275 7207 ft 277 kts 39°
2026-04-26 08:23 22.31218 120.29629 6910 ft 276 kts 39°
2026-04-26 08:23 22.32669 120.30980 6604 ft 275 kts 39°
2026-04-26 08:23 22.34109 120.32321 6301 ft 273 kts 39°
2026-04-26 08:23 22.35542 120.33655 6002 ft 271 kts 39°
2026-04-26 08:24 22.36967 120.34983 5705 ft 270 kts 39°
2026-04-26 08:24 22.38383 120.36304 5411 ft 268 kts 39°
2026-04-26 08:24 22.39772 120.37599 5124 ft 266 kts 39°
2026-04-26 08:24 22.41168 120.38902 4831 ft 264 kts 39°
2026-04-26 08:25 22.42571 120.40210 4551 ft 262 kts 39°
2026-04-26 08:25 22.43930 120.41477 4323 ft 251 kts 40°
2026-04-26 08:25 22.45212 120.42674 4206 ft 236 kts 40°
2026-04-26 08:25 22.46396 120.43779 4083 ft 221 kts 40°
2026-04-26 08:26 22.47509 120.44819 4012 ft 203 kts 40°
2026-04-26 08:26 22.48550 120.45791 3912 ft 193 kts 40°
2026-04-26 08:26 22.49543 120.46720 3786 ft 184 kts 40°
2026-04-26 08:26 22.50484 120.47598 3707 ft 177 kts 40°
2026-04-26 08:27 22.51414 120.48467 3586 ft 176 kts 40°
2026-04-26 08:27 22.52338 120.49329 3472 ft 176 kts 40°
2026-04-26 08:27 22.53264 120.50196 3353 ft 175 kts 40°
2026-04-26 08:27 22.54193 120.51042 3212 ft 174 kts 34°
2026-04-26 08:28 22.55320 120.51383 2956 ft 169 kts 356°
2026-04-26 08:28 22.56367 120.50880 2719 ft 169 kts 317°
2026-04-26 08:28 22.56955 120.49768 2516 ft 175 kts 290°
2026-04-26 08:28 22.57244 120.48485 2281 ft 176 kts 278°
2026-04-26 08:29 22.57340 120.47206 2060 ft 162 kts 271°
2026-04-26 08:29 22.57376 120.46039 1882 ft 152 kts 270°
2026-04-26 08:29 22.57408 120.44919 1662 ft 147 kts 270°
2026-04-26 08:29 22.57438 120.43835 1467 ft 140 kts 272°
2026-04-26 08:30 22.57470 120.42803 1276 ft 135 kts 272°
2026-04-26 08:30 22.57502 120.41790 1089 ft 134 kts 272°
2026-04-26 08:30 22.57532 120.40782 913 ft 134 kts 272°
2026-04-26 08:30 22.57572 120.39777 729 ft 133 kts 270°
2026-04-26 08:31 22.57607 120.38774 565 ft 134 kts 269°
2026-04-26 08:31 22.57618 120.37779 354 ft 135 kts 271°
2026-04-26 08:31 22.57656 120.36765 176 ft 135 kts 271°
2026-04-26 08:31 22.57686 120.35761 47 ft 128 kts 271°
2026-04-26 08:32 22.57710 120.34927 41 ft 82 kts 272°
2026-04-26 08:32 22.57723 120.34510 39 ft 33 kts 271°
2026-04-26 08:32 22.57727 120.34306 42 ft 27 kts 272°
2026-04-26 08:32 22.57696 120.34134 39 ft 20 kts 204°
2026-04-26 08:33 22.57551 120.34123 39 ft 22 kts 182°
2026-04-26 08:33 22.57414 120.34095 38 ft 14 kts 239°
2026-04-26 08:33 22.57353 120.34053 41 ft 12 kts 184°
2026-04-26 08:33 22.57275 120.34044 41 ft 4 kts 237°
2026-04-26 08:34 22.57270 120.34013 38 ft 6 kts 264°
2026-04-26 08:34 22.57271 120.33968 41 ft 1 kts 270°
2026-04-26 08:34 22.57271 120.33966 41 ft 0 kts 270°